| time (UTC) | temp F | wind direction | speed knots | gust knots | rain 1hr in | rain 24hr in | rain mn in | humidity % | barometer mb |
| 20260503033004 | 79 | 246 | 0.0 | 2.6 | 0.00 | 0.00 | 0.00 | 76 | 1014.3 |
| 20260503031508 | 80 | 207 | 0.0 | 3.5 | 0.00 | 0.00 | 0.00 | 75 | 1013.9 |
| 20260503030008 | 80 | 279 | 0.0 | 5.2 | 0.00 | 0.00 | 0.00 | 73 | 1013.9 |
| 20260503024511 | 80 | 247 | 0.9 | 2.6 | 0.00 | 0.00 | 0.00 | 72 | 1013.9 |
| 20260503023013 | 81 | 242 | 0.0 | 1.7 | 0.00 | 0.00 | 0.00 | 71 | 1013.9 |
| 20260503021507 | 81 | 195 | 0.0 | 1.7 | 0.00 | 0.00 | 0.00 | 70 | 1013.8 |
| 20260503020007 | 81 | 261 | 0.0 | 1.7 | 0.00 | 0.00 | 0.00 | 69 | 1013.5 |
| 20260503014521 | 82 | 267 | 0.9 | 3.5 | 0.00 | 0.00 | 0.00 | 68 | 1013.7 |
| 20260503013024 | 82 | 246 | 0.9 | 6.1 | 0.00 | 0.00 | 0.00 | 66 | 1013.6 |
| 20260503011514 | 82 | 254 | 1.7 | 6.1 | 0.00 | 0.00 | 0.00 | 64 | 1013.5 |
| 20260503010008 | 82 | 256 | 0.0 | 5.2 | 0.00 | 0.00 | 0.00 | 62 | 1013.2 |
| 20260503004540 | 83 | 248 | 0.9 | 5.2 | 0.00 | 0.00 | 0.00 | 60 | 1012.9 |
| 20260503003015 | 84 | 298 | 1.7 | 6.1 | 0.00 | 0.00 | 0.00 | 58 | 1012.9 |
| 20260503001516 | 84 | 311 | 0.9 | 5.2 | 0.00 | 0.00 | 0.00 | 56 | 1012.7 |
| 20260503000012 | 85 | 233 | 1.7 | 5.2 | 0.00 | 0.00 | 0.00 | 54 | 1012.5 |
| 20260502234512 | 87 | 267 | 1.7 | 7.0 | 0.00 | 0.00 | 0.00 | 51 | 1012.3 |
| 20260502233016 | 88 | 328 | 0.9 | 3.5 | 0.00 | 0.00 | 0.00 | 47 | 1011.9 |
| 20260502231516 | 89 | 149 | 0.9 | 3.5 | 0.00 | 0.00 | 0.00 | 46 | 1011.7 |
| 20260502230017 | 90 | 240 | 1.7 | 7.0 | 0.00 | 0.00 | 0.00 | 43 | 1011.5 |
| 20260502224509 | 90 | 253 | 1.7 | 7.0 | 0.00 | 0.00 | 0.00 | 41 | 1011.1 |
| 20260502223012 | 91 | 245 | 0.9 | 6.1 | 0.00 | 0.00 | 0.00 | 41 | 1010.8 |
| 20260502221518 | 92 | 258 | 1.7 | 6.1 | 0.00 | 0.00 | 0.00 | 40 | 1011.0 |
| 20260502220031 | 93 | 266 | 3.5 | 7.0 | 0.00 | 0.00 | 0.00 | 39 | 1011.0 |
| 20260502214518 | 94 | 219 | 2.6 | 7.0 | 0.00 | 0.00 | 0.00 | 38 | 1011.0 |
| 20260502213012 | 94 | 248 | 2.6 | 8.7 | 0.00 | 0.00 | 0.00 | 37 | 1010.7 |
| 20260502211528 | 94 | 227 | 1.7 | 7.8 | 0.00 | 0.00 | 0.00 | 37 | 1010.4 |
| 20260502210022 | 94 | 265 | 2.6 | 8.7 | 0.00 | 0.00 | 0.00 | 36 | 1010.3 |
| 20260502204522 | 95 | 267 | 2.6 | 10.4 | 0.00 | 0.00 | 0.00 | 35 | 1010.4 |
| 20260502203010 | 96 | 257 | 2.6 | 8.7 | 0.00 | 0.00 | 0.00 | 36 | 1010.4 |
| 20260502201515 | 95 | 236 | 1.7 | 7.0 | 0.00 | 0.00 | 0.00 | 38 | 1010.6 |
| 20260502200020 | 95 | 269 | 3.5 | 9.6 | 0.00 | 0.00 | 0.00 | 36 | 1010.8 |
| 20260502194504 | 95 | 226 | 2.6 | 9.6 | 0.00 | 0.00 | 0.00 | 38 | 1011.1 |
| 20260502193006 | 95 | 208 | 1.7 | 8.7 | 0.00 | 0.00 | 0.00 | 39 | 1011.1 |
| 20260502191521 | 95 | 190 | 1.7 | 8.7 | 0.00 | 0.00 | 0.00 | 40 | 1011.3 |
| 20260502190020 | 95 | 263 | 1.7 | 9.6 | 0.00 | 0.00 | 0.00 | 38 | 1011.4 |
| 20260502184523 | 94 | 267 | 1.7 | 7.0 | 0.00 | 0.00 | 0.00 | 43 | 1011.2 |
| 20260502183006 | 95 | 142 | 1.7 | 9.6 | 0.00 | 0.00 | 0.00 | 43 | 1011.3 |
| 20260502181509 | 94 | 225 | 1.7 | 8.7 | 0.00 | 0.00 | 0.00 | 46 | 1011.5 |
| 20260502163032 | 92 | 219 | 1.7 | 3.5 | 0.00 | 0.00 | 0.00 | 56 | 1012.2 |
| 20260502161509 | 91 | 150 | 0.9 | 2.6 | 0.00 | 0.00 | 0.00 | 59 | 1012.1 |
| 20260502151527 | 88 | 236 | 0.9 | 3.5 | 0.00 | 0.00 | 0.00 | 62 | 1012.8 |
| 20260502123021 | 82 | 253 | 0.0 | 3.5 | 0.00 | 0.00 | 0.00 | 78 | 1012.4 |
| 20260502121522 | 81 | 242 | 0.0 | 2.6 | 0.00 | 0.00 | 0.00 | 80 | 1012.2 |
| 20260502114510 | 78 | 167 | 0.0 | 0.0 | 0.00 | 0.00 | 0.00 | 85 | 1012.3 |
| 20260502113019 | 76 | 60 | 0.0 | 0.0 | 0.00 | 0.00 | 0.00 | 87 | 1012.2 |
| 20260502111522 | 75 | 60 | 0.0 | 0.0 | 0.00 | 0.00 | 0.00 | 87 | 1012.3 |
| 20260502110006 | 75 | 51 | 0.0 | 0.0 | 0.00 | 0.00 | 0.00 | 85 | 1012.4 |
| 20260502104533 | 75 | 51 | 0.0 | 0.0 | 0.00 | 0.00 | 0.00 | 84 | 1012.4 |
| 20260502103015 | 75 | 51 | 0.0 | 0.0 | 0.00 | 0.00 | 0.00 | 84 | 1012.2 |
| 20260502101520 | 75 | 51 | 0.0 | 0.0 | 0.00 | 0.00 | 0.00 | 84 | 1012.2 |
| 20260502091522 | 74 | 27 | 0.0 | 0.0 | 0.00 | 0.00 | 0.00 | 84 | 1012.3 |
| 20260502071529 | 75 | 304 | 0.0 | 0.0 | 0.00 | 0.00 | 0.00 | 85 | 1012.2 |
| 20260502070021 | 75 | 263 | 0.0 | 0.0 | 0.00 | 0.00 | 0.00 | 85 | 1012.3 |
| 20260502064526 | 75 | 263 | 0.0 | 0.0 | 0.00 | 0.00 | 0.00 | 85 | 1012.3 |
| 20260502063006 | 75 | 263 | 0.0 | 0.0 | 0.00 | 0.00 | 0.00 | 85 | 1012.3 |
| 20260502061513 | 75 | 263 | 0.0 | 0.0 | 0.00 | 0.00 | 0.00 | 84 | 1012.5 |
| 20260502060018 | 75 | 263 | 0.0 | 0.0 | 0.00 | 0.00 | 0.00 | 83 | 1012.4 |
| 20260502054524 | 75 | 263 | 0.0 | 0.0 | 0.00 | 0.00 | 0.00 | 83 | 1012.4 |
| 20260502053004 | 76 | 263 | 0.0 | 0.0 | 0.00 | 0.00 | 0.00 | 82 | 1012.3 |
| 20260502051525 | 76 | 263 | 0.0 | 0.0 | 0.00 | 0.00 | 0.00 | 81 | 1012.6 |
| 20260502050016 | 76 | 263 | 0.0 | 0.0 | 0.00 | 0.00 | 0.00 | 80 | 1012.7 |
| 20260502044523 | 76 | 263 | 0.0 | 0.0 | 0.00 | 0.00 | 0.00 | 79 | 1012.6 |
| 20260502043025 | 77 | 263 | 0.0 | 0.0 | 0.00 | 0.00 | 0.00 | 78 | 1012.8 |
| 20260502041508 | 77 | 263 | 0.0 | 0.0 | 0.00 | 0.00 | 0.00 | 77 | 1012.8 |
| 20260502040014 | 77 | 263 | 0.0 | 0.0 | 0.00 | 0.00 | 0.00 | 76 | 1013.2 |
| 20260502034535 | 78 | 263 | 0.0 | 0.0 | 0.00 | 0.00 | 0.00 | 77 | 1013.3 |